owner,sensor,date,latitude,longitude,vertical_datum,wind_speed,wind_to_direction,wind_speed_of_gust,qcFlag 
TABS,ioos:station:TABS:H:1,2007-06-01T00:00:00Z,27.8674,-96.5433,4.0,6.912539331,110.8474534,7.92,'11111222,11111222,11111222' 
TABS,ioos:station:TABS:H:1,2007-06-01T00:30:00Z,27.8674,-96.5433,4.0,6.783745278,110.3587113,7.94,'11111222,11111222,11111222' 
TABS,ioos:station:TABS:H:1,2007-06-01T01:00:00Z,27.8674,-96.5433,4.0,7.208113484,107.354405,8.62,'11111222,11111222,11111222' 
TABS,ioos:station:TABS:H:1,2007-06-01T01:30:00Z,27.8674,-96.5433,4.0,7.687528862,108.2703458,8.84,'11111222,11111222,11111222' 
TABS,ioos:station:TABS:H:1,2007-06-01T02:00:00Z,27.8674,-96.5433,4.0,7.076475111,106.9245266,8.25,'11111222,11111222,11111222' 
TABS,ioos:station:TABS:H:1,2007-06-01T02:30:00Z,27.8674,-96.5433,4.0,7.809231716,111.0115448,9.1,'11111222,11111222,11111222' 
TABS,ioos:station:TABS:H:1,2007-06-01T03:00:00Z,27.8674,-96.5433,4.0,7.174656786,110.734006,8.6,'11111222,11111222,11111222' 
TABS,ioos:station:TABS:H:1,2007-06-01T03:30:00Z,27.8674,-96.5433,4.0,6.377279984,116.4448723,7.49,'11111222,11111222,11111222' 
TABS,ioos:station:TABS:H:1,2007-06-01T04:00:00Z,27.8674,-96.5433,4.0,6.948014105,114.942529,7.86,'11111222,11111222,11111222' 
TABS,ioos:station:TABS:H:1,2007-06-01T04:30:00Z,27.8674,-96.5433,4.0,8.573179107,116.8344016,10.15,'11111222,11111222,11111222' 
TABS,ioos:station:TABS:H:1,2007-06-01T05:00:00Z,27.8674,-96.5433,4.0,7.998931179,114.1301293,9.25,'11111222,11111222,11111222' 
TABS,ioos:station:TABS:H:1,2007-06-01T05:30:00Z,27.8674,-96.5433,4.0,8.380984429,116.9628654,9.65,'11111222,11111222,11111222' 
TABS,ioos:station:TABS:H:1,2007-06-01T06:00:00Z,27.8674,-96.5433,4.0,8.096431313,123.0034444,9.32,'11111222,11111222,11111222' 
TABS,ioos:station:TABS:H:1,2007-06-01T06:30:00Z,27.8674,-96.5433,4.0,7.423435862,127.9971638,8.87,'11111222,11111222,11111222' 
TABS,ioos:station:TABS:H:1,2007-06-01T07:00:00Z,27.8674,-96.5433,4.0,6.981038605,133.6654004,8.48,'11111222,11111222,11111222' 
TABS,ioos:station:TABS:H:1,2007-06-01T07:30:00Z,27.8674,-96.5433,4.0,6.708755473,132.7048837,7.91,'11111222,11111222,11111222' 
TABS,ioos:station:TABS:H:1,2007-06-01T08:00:00Z,27.8674,-96.5433,4.0,6.672046163,139.9858258,7.65,'11111222,11111222,11111222' 
TABS,ioos:station:TABS:H:1,2007-06-01T08:30:00Z,27.8674,-96.5433,4.0,7.54485255,139.3001685,8.91,'11111222,11111222,11111222' 
TABS,ioos:station:TABS:H:1,2007-06-01T09:00:00Z,27.8674,-96.5433,4.0,6.728461934,144.6803936,7.69,'11111222,11111222,11111222' 
TABS,ioos:station:TABS:H:1,2007-06-01T09:30:00Z,27.8674,-96.5433,4.0,7.924272837,138.1205825,9.38,'11111222,11111222,11111222' 
TABS,ioos:station:TABS:H:1,2007-06-01T10:00:00Z,27.8674,-96.5433,4.0,7.148069669,144.5092052,8.77,'11111222,11111222,11111222' 
TABS,ioos:station:TABS:H:1,2007-06-01T10:30:00Z,27.8674,-96.5433,4.0,6.282778048,140.1013221,7.35,'11111222,11111222,11111222' 
TABS,ioos:station:TABS:H:1,2007-06-01T11:00:00Z,27.8674,-96.5433,4.0,6.730066864,148.3648956,8.08,'11111222,11111222,11111222' 
TABS,ioos:station:TABS:H:1,2007-06-01T11:30:00Z,27.8674,-96.5433,4.0,6.826199528,150.9945892,7.9,'11111222,11111222,11111222' 
TABS,ioos:station:TABS:H:1,2007-06-01T12:00:00Z,27.8674,-96.5433,4.0,6.461184102,155.2994492,7.75,'11111222,11111222,11111222' 
TABS,ioos:station:TABS:H:1,2007-06-01T12:30:00Z,27.8674,-96.5433,4.0,5.568213358,152.7449458,6.75,'11111222,11111222,11111222' 
TABS,ioos:station:TABS:H:1,2007-06-01T13:00:00Z,27.8674,-96.5433,4.0,5.255891932,162.0479281,6.18,'11111222,11111222,11111222' 
TABS,ioos:station:TABS:H:1,2007-06-01T13:30:00Z,27.8674,-96.5433,4.0,4.857211134,159.5132442,5.91,'11111222,11111222,11111222' 
TABS,ioos:station:TABS:H:1,2007-06-01T14:00:00Z,27.8674,-96.5433,4.0,4.556884901,155.9101136,5.89,'11111222,11111222,11111222' 
TABS,ioos:station:TABS:H:1,2007-06-01T14:30:00Z,27.8674,-96.5433,4.0,3.95132889,151.4245353,5.19,'11111222,11111222,11111222' 
TABS,ioos:station:TABS:H:1,2007-06-01T15:00:00Z,27.8674,-96.5433,4.0,4.3829214,152.8505922,5.27,'11111222,11111222,11111222' 
TABS,ioos:station:TABS:H:1,2007-06-01T15:30:00Z,27.8674,-96.5433,4.0,3.7727046,147.4475594,4.93,'11111222,11111222,11111222' 
TABS,ioos:station:TABS:H:1,2007-06-01T16:00:00Z,27.8674,-96.5433,4.0,3.54857718,142.0969933,4.31,'11111222,11111222,11111222' 
TABS,ioos:station:TABS:H:1,2007-06-01T16:30:00Z,27.8674,-96.5433,4.0,3.306508733,148.858221,4.19,'11111222,11111222,11111222' 
TABS,ioos:station:TABS:H:1,2007-06-01T17:00:00Z,27.8674,-96.5433,4.0,3.145155004,146.4112721,3.91,'11111222,11111222,11111222' 
TABS,ioos:station:TABS:H:1,2007-06-01T17:30:00Z,27.8674,-96.5433,4.0,3.04862264,136.4623002,3.91,'11111222,11111222,11111222' 
TABS,ioos:station:TABS:H:1,2007-06-01T18:00:00Z,27.8674,-96.5433,4.0,3.532888337,137.8684409,4.51,'11111222,11111222,11111222' 
TABS,ioos:station:TABS:H:1,2007-06-01T18:30:00Z,27.8674,-96.5433,4.0,3.759175442,128.303087,4.83,'11111222,11111222,11111222' 
TABS,ioos:station:TABS:H:1,2007-06-01T19:00:00Z,27.8674,-96.5433,4.0,4.540044053,127.1226344,5.62,'11111222,11111222,11111222' 
TABS,ioos:station:TABS:H:1,2007-06-01T19:30:00Z,27.8674,-96.5433,4.0,4.513989366,125.169133,5.75,'11111222,11111222,11111222' 
TABS,ioos:station:TABS:H:1,2007-06-01T20:00:00Z,27.8674,-96.5433,4.0,4.80453952,127.7288871,5.93,'11111222,11111222,11111222' 
TABS,ioos:station:TABS:H:1,2007-06-01T20:30:00Z,27.8674,-96.5433,4.0,4.844006606,126.7756071,6.14,'11111222,11111222,11111222' 
TABS,ioos:station:TABS:H:1,2007-06-01T21:00:00Z,27.8674,-96.5433,4.0,5.930944276,122.5382204,7.4,'11111222,11111222,11111222' 
TABS,ioos:station:TABS:H:1,2007-06-01T21:30:00Z,27.8674,-96.5433,4.0,6.411442895,120.0445107,7.75,'11111222,11111222,11111222' 
TABS,ioos:station:TABS:H:1,2007-06-01T22:00:00Z,27.8674,-96.5433,4.0,6.33245608,121.8330948,7.63,'11111222,11111222,11111222' 
TABS,ioos:station:TABS:H:1,2007-06-01T22:30:00Z,27.8674,-96.5433,4.0,6.952826763,121.4728838,8.18,'11111222,11111222,11111222' 
TABS,ioos:station:TABS:H:1,2007-06-01T23:00:00Z,27.8674,-96.5433,4.0,6.93956771,124.1941953,8.65,'11111222,11111222,11111222' 
TABS,ioos:station:TABS:H:1,2007-06-01T23:30:00Z,27.8674,-96.5433,4.0,6.172236224,126.3689547,7.8,'11111222,11111222,11111222' 
TABS,ioos:station:TABS:H:1,2007-06-02T00:00:00Z,27.8674,-96.5433,4.0,6.516141496,133.0725256,8.26,'11111222,11111222,11111222' 
TABS,ioos:station:TABS:H:1,2007-06-02T00:30:00Z,27.8674,-96.5433,4.0,7.552648542,125.3528218,9.1,'11111222,11111222,11111222' 
TABS,ioos:station:TABS:H:1,2007-06-02T01:00:00Z,27.8674,-96.5433,4.0,7.84346862,123.7714501,9.21,'11111222,11111222,11111222' 
TABS,ioos:station:TABS:H:1,2007-06-02T01:30:00Z,27.8674,-96.5433,4.0,7.824659737,125.3762842,9.01,'11111222,11111222,11111222' 
TABS,ioos:station:TABS:H:1,2007-06-02T02:00:00Z,27.8674,-96.5433,4.0,7.869644211,124.700098,9.33,'11111222,11111222,11111222' 
TABS,ioos:station:TABS:H:1,2007-06-02T02:30:00Z,27.8674,-96.5433,4.0,8.112570493,123.9450553,9.38,'11111222,11111222,11111222' 
TABS,ioos:station:TABS:H:1,2007-06-02T03:00:00Z,27.8674,-96.5433,4.0,8.457452335,122.7884865,10.15,'11111222,11111222,11111222' 
TABS,ioos:station:TABS:H:1,2007-06-02T03:30:00Z,27.8674,-96.5433,4.0,8.340023981,127.0076317,9.84,'11111222,11111222,11111222' 
TABS,ioos:station:TABS:H:1,2007-06-02T04:00:00Z,27.8674,-96.5433,4.0,7.605662364,128.6483737,9.23,'11111222,11111222,11111222' 
TABS,ioos:station:TABS:H:1,2007-06-02T04:30:00Z,27.8674,-96.5433,4.0,7.04301072,135.4605118,9.1,'11111222,11111222,11111222' 
TABS,ioos:station:TABS:H:1,2007-06-02T05:00:00Z,27.8674,-96.5433,4.0,6.460069659,142.8643221,8.59,'11111222,11111222,11111222' 
TABS,ioos:station:TABS:H:1,2007-06-02T05:30:00Z,27.8674,-96.5433,4.0,7.397431987,135.9861855,9.5,'11111222,11111222,11111222' 
TABS,ioos:station:TABS:H:1,2007-06-02T06:00:00Z,27.8674,-96.5433,4.0,7.304580755,135.3885668,8.71,'11111222,11111222,11111222' 
TABS,ioos:station:TABS:H:1,2007-06-02T06:30:00Z,27.8674,-96.5433,4.0,6.354919354,145.3849687,7.97,'11111222,11111222,11111222' 
TABS,ioos:station:TABS:H:1,2007-06-02T07:00:00Z,27.8674,-96.5433,4.0,5.993229513,147.9543675,7.6,'11111222,11111222,11111222' 
TABS,ioos:station:TABS:H:1,2007-06-02T07:30:00Z,27.8674,-96.5433,4.0,6.663227446,151.3966803,8.54,'11111222,11111222,11111222' 
TABS,ioos:station:TABS:H:1,2007-06-02T08:00:00Z,27.8674,-96.5433,4.0,6.622333426,157.5401257,8.02,'11111222,11111222,11111222' 
TABS,ioos:station:TABS:H:1,2007-06-02T08:30:00Z,27.8674,-96.5433,4.0,6.791001399,157.8541735,8.45,'11111222,11111222,11111222' 
TABS,ioos:station:TABS:H:1,2007-06-02T09:00:00Z,27.8674,-96.5433,4.0,7.384233203,159.1354428,9.09,'11111222,11111222,11111222' 
TABS,ioos:station:TABS:H:1,2007-06-02T09:30:00Z,27.8674,-96.5433,4.0,7.115180953,153.5432583,8.52,'11111222,11111222,11111222' 
TABS,ioos:station:TABS:H:1,2007-06-02T10:00:00Z,27.8674,-96.5433,4.0,6.219236288,150.6324887,7.64,'11111222,11111222,11111222' 
TABS,ioos:station:TABS:H:1,2007-06-02T10:30:00Z,27.8674,-96.5433,4.0,5.44008272,143.4463645,6.85,'11111222,11111222,11111222' 
TABS,ioos:station:TABS:H:1,2007-06-02T11:00:00Z,27.8674,-96.5433,4.0,5.375276737,146.8423641,6.85,'11111222,11111222,11111222' 
TABS,ioos:station:TABS:H:1,2007-06-02T11:30:00Z,27.8674,-96.5433,4.0,4.099817069,151.1221351,5.25,'11111222,11111222,11111222' 
TABS,ioos:station:TABS:H:1,2007-06-02T12:00:00Z,27.8674,-96.5433,4.0,3.965677748,161.0170378,4.82,'11111222,11111222,11111222' 
TABS,ioos:station:TABS:H:1,2007-06-02T12:30:00Z,27.8674,-96.5433,4.0,4.036334971,163.001885,4.83,'11111222,11111222,11111222' 
TABS,ioos:station:TABS:H:1,2007-06-02T13:00:00Z,27.8674,-96.5433,4.0,2.974306642,154.2967451,4.03,'11111222,11111222,11111222' 
TABS,ioos:station:TABS:H:1,2007-06-02T13:30:00Z,27.8674,-96.5433,4.0,2.580310059,142.2421656,3.26,'11111222,11111222,11111222' 
TABS,ioos:station:TABS:H:1,2007-06-02T14:00:00Z,27.8674,-96.5433,4.0,2.622460677,148.2496507,3.39,'11111222,11111222,11111222' 
TABS,ioos:station:TABS:H:1,2007-06-02T14:30:00Z,27.8674,-96.5433,4.0,2.559472602,175.0692667,3.39,'11111222,11111222,11111222' 
TABS,ioos:station:TABS:H:1,2007-06-02T15:00:00Z,27.8674,-96.5433,4.0,1.834802442,151.3399737,2.44,'11111222,11111222,11111222' 
TABS,ioos:station:TABS:H:1,2007-06-02T15:30:00Z,27.8674,-96.5433,4.0,1.224499898,149.0365263,1.83,'11111222,11111222,11111222' 
TABS,ioos:station:TABS:H:1,2007-06-02T16:00:00Z,27.8674,-96.5433,4.0,1.724093965,126.2720397,2.28,'11111222,11111222,11111222' 
TABS,ioos:station:TABS:H:1,2007-06-02T16:30:00Z,27.8674,-96.5433,4.0,2.209117471,97.54362957,2.92,'11111222,11111222,11111222' 
TABS,ioos:station:TABS:H:1,2007-06-02T17:00:00Z,27.8674,-96.5433,4.0,2.7759683,113.7952007,3.56,'11111222,11111222,11111222' 
TABS,ioos:station:TABS:H:1,2007-06-02T17:30:00Z,27.8674,-96.5433,4.0,3.664423556,140.3148489,4.63,'11111222,11111222,11111222' 
TABS,ioos:station:TABS:H:1,2007-06-02T18:00:00Z,27.8674,-96.5433,4.0,4.094203219,134.7034497,5.17,'11111222,11111222,11111222' 
TABS,ioos:station:TABS:H:1,2007-06-02T18:30:00Z,27.8674,-96.5433,4.0,3.641661709,119.8037772,4.63,'11111222,11111222,11111222' 
TABS,ioos:station:TABS:H:1,2007-06-02T19:00:00Z,27.8674,-96.5433,4.0,3.933954753,125.063949,5.0,'11111222,11111222,11111222' 
TABS,ioos:station:TABS:H:1,2007-06-02T19:30:00Z,27.8674,-96.5433,4.0,4.061773012,125.1772579,5.18,'11111222,11111222,11111222' 
TABS,ioos:station:TABS:H:1,2007-06-02T20:00:00Z,27.8674,-96.5433,4.0,4.863332191,141.0093076,5.83,'11111222,11111222,11111222' 
TABS,ioos:station:TABS:H:1,2007-06-02T20:30:00Z,27.8674,-96.5433,4.0,4.404327417,146.2019807,5.58,'11111222,11111222,11111222' 
TABS,ioos:station:TABS:H:1,2007-06-02T21:00:00Z,27.8674,-96.5433,4.0,4.390466946,140.54562,5.38,'11111222,11111222,11111222' 
TABS,ioos:station:TABS:H:1,2007-06-02T21:30:00Z,27.8674,-96.5433,4.0,4.638491134,145.0082721,5.7,'11111222,11111222,11111222' 
TABS,ioos:station:TABS:H:1,2007-06-02T22:00:00Z,27.8674,-96.5433,4.0,4.000412479,137.9385757,5.03,'11111222,11111222,11111222' 
TABS,ioos:station:TABS:H:1,2007-06-02T22:30:00Z,27.8674,-96.5433,4.0,4.276868013,145.8643502,5.18,'11111222,11111222,11111222' 
TABS,ioos:station:TABS:H:1,2007-06-02T23:00:00Z,27.8674,-96.5433,4.0,4.668211649,149.2049186,5.64,'11111222,11111222,11111222' 
TABS,ioos:station:TABS:H:1,2007-06-02T23:30:00Z,27.8674,-96.5433,4.0,4.53841382,141.2616274,5.65,'11111222,11111222,11111222' 
TABS,ioos:station:TABS:H:1,2007-06-03T00:00:00Z,27.8674,-96.5433,4.0,4.9757512,141.6102441,6.06,'11111222,11111222,11111222' 
TABS,ioos:station:TABS:H:1,2007-06-03T00:30:00Z,27.8674,-96.5433,4.0,5.098019223,142.9730556,6.23,'11111222,11111222,11111222' 
TABS,ioos:station:TABS:H:1,2007-06-03T01:00:00Z,27.8674,-96.5433,4.0,5.729729488,154.4638383,7.09,'11111222,11111222,11111222' 
TABS,ioos:station:TABS:H:1,2007-06-03T01:30:00Z,27.8674,-96.5433,4.0,6.216148325,155.5791975,7.56,'11111222,11111222,11111222' 
TABS,ioos:station:TABS:H:1,2007-06-03T02:00:00Z,27.8674,-96.5433,4.0,6.656613253,161.7013987,7.68,'11111222,11111222,11111222' 
TABS,ioos:station:TABS:H:1,2007-06-03T02:30:00Z,27.8674,-96.5433,4.0,6.475214282,163.8603829,7.53,'11111222,11111222,11111222' 
TABS,ioos:station:TABS:H:1,2007-06-03T03:00:00Z,27.8674,-96.5433,4.0,6.617620418,167.0770083,7.68,'11111222,11111222,11111222' 
TABS,ioos:station:TABS:H:1,2007-06-03T03:30:00Z,27.8674,-96.5433,4.0,6.068690139,169.6531658,7.65,'11111222,11111222,11111222' 
TABS,ioos:station:TABS:H:1,2007-06-03T04:00:00Z,27.8674,-96.5433,4.0,5.987595511,169.1219372,6.96,'11111222,11111222,11111222' 
TABS,ioos:station:TABS:H:1,2007-06-03T04:30:00Z,27.8674,-96.5433,4.0,5.781660661,175.0390663,6.81,'11111222,11111222,11111222' 
TABS,ioos:station:TABS:H:1,2007-06-03T05:00:00Z,27.8674,-96.5433,4.0,6.680254486,176.8251454,8.42,'11111222,11111222,11111222' 
TABS,ioos:station:TABS:H:1,2007-06-03T05:30:00Z,27.8674,-96.5433,4.0,6.570487044,179.3025811,8.0,'11111222,11111222,11111222' 
TABS,ioos:station:TABS:H:1,2007-06-03T06:00:00Z,27.8674,-96.5433,4.0,6.295395142,175.9924153,7.44,'11111222,11111222,11111222' 
TABS,ioos:station:TABS:H:1,2007-06-03T06:30:00Z,27.8674,-96.5433,4.0,5.465939992,171.796006,6.66,'11111222,11111222,11111222' 
TABS,ioos:station:TABS:H:1,2007-06-03T07:00:00Z,27.8674,-96.5433,4.0,5.51724569,170.4013298,6.56,'11111222,11111222,11111222' 
TABS,ioos:station:TABS:H:1,2007-06-03T07:30:00Z,27.8674,-96.5433,4.0,5.434059256,177.7854605,6.57,'11111222,11111222,11111222' 
TABS,ioos:station:TABS:H:1,2007-06-03T08:00:00Z,27.8674,-96.5433,4.0,5.704042426,175.9790125,6.94,'11111222,11111222,11111222' 
TABS,ioos:station:TABS:H:1,2007-06-03T08:30:00Z,27.8674,-96.5433,4.0,5.680008803,179.8993379,6.64,'11111222,11111222,11111222' 
TABS,ioos:station:TABS:H:1,2007-06-03T09:00:00Z,27.8674,-96.5433,4.0,5.364196119,184.1695276,6.81,'11111222,11111222,11111222' 
TABS,ioos:station:TABS:H:1,2007-06-03T09:30:00Z,27.8674,-96.5433,4.0,4.799302033,185.1405849,5.84,'11111222,11111222,11111222' 
TABS,ioos:station:TABS:H:1,2007-06-03T10:00:00Z,27.8674,-96.5433,4.0,5.063793045,191.6207792,5.88,'11111222,11111222,11111222' 
TABS,ioos:station:TABS:H:1,2007-06-03T10:30:00Z,27.8674,-96.5433,4.0,4.61738021,192.3809384,5.43,'11111222,11111222,11111222' 
TABS,ioos:station:TABS:H:1,2007-06-03T11:00:00Z,27.8674,-96.5433,4.0,3.83418831,196.828234,4.51,'11111222,11111222,11111222' 
TABS,ioos:station:TABS:H:1,2007-06-03T11:30:00Z,27.8674,-96.5433,4.0,3.564519603,195.7910147,4.43,'11111222,11111222,11111222' 
TABS,ioos:station:TABS:H:1,2007-06-03T12:00:00Z,27.8674,-96.5433,4.0,3.826238362,191.4569528,4.76,'11111222,11111222,11111222' 
TABS,ioos:station:TABS:H:1,2007-06-03T12:30:00Z,27.8674,-96.5433,4.0,4.456332573,195.2214641,5.17,'11111222,11111222,11111222' 
TABS,ioos:station:TABS:H:1,2007-06-03T13:00:00Z,27.8674,-96.5433,4.0,4.031935019,185.97945,4.97,'11111222,11111222,11111222' 
TABS,ioos:station:TABS:H:1,2007-06-03T13:30:00Z,27.8674,-96.5433,4.0,4.094801582,186.3094836,4.74,'11111222,11111222,11111222' 
TABS,ioos:station:TABS:H:1,2007-06-03T14:00:00Z,27.8674,-96.5433,4.0,3.610872471,184.4475849,4.38,'11111222,11111222,11111222' 
TABS,ioos:station:TABS:H:1,2007-06-03T14:30:00Z,27.8674,-96.5433,4.0,3.070586263,178.8805684,3.89,'11111222,11111222,11111222' 
TABS,ioos:station:TABS:H:1,2007-06-03T15:00:00Z,27.8674,-96.5433,4.0,3.754703717,186.5763093,4.81,'11111222,11111222,11111222' 
TABS,ioos:station:TABS:H:1,2007-06-03T15:30:00Z,27.8674,-96.5433,4.0,4.019763675,192.7918111,5.05,'11111222,11111222,11111222' 
TABS,ioos:station:TABS:H:1,2007-06-03T16:00:00Z,27.8674,-96.5433,4.0,4.284390272,192.6740408,5.5,'11111222,11111222,11111222' 
TABS,ioos:station:TABS:H:1,2007-06-03T16:30:00Z,27.8674,-96.5433,4.0,3.516475508,208.1684758,4.43,'11111222,11111222,11111222' 
TABS,ioos:station:TABS:H:1,2007-06-03T17:00:00Z,27.8674,-96.5433,4.0,3.428833621,204.0983746,4.37,'11111222,11111222,11111222' 
TABS,ioos:station:TABS:H:1,2007-06-03T17:30:00Z,27.8674,-96.5433,4.0,2.870209052,209.4231399,3.81,'11111222,11111222,11111222' 
TABS,ioos:station:TABS:H:1,2007-06-03T18:00:00Z,27.8674,-96.5433,4.0,3.294191858,192.9817603,4.02,'11111222,11111222,11111222' 
TABS,ioos:station:TABS:H:1,2007-06-03T18:30:00Z,27.8674,-96.5433,4.0,4.81300322,182.02437,5.94,'11111222,11111222,11111222' 
TABS,ioos:station:TABS:H:1,2007-06-03T19:00:00Z,27.8674,-96.5433,4.0,3.985486169,173.5171519,5.01,'11111222,11111222,11111222' 
TABS,ioos:station:TABS:H:1,2007-06-03T19:30:00Z,27.8674,-96.5433,4.0,2.818244134,168.3314637,3.9,'11111222,11111222,11111222' 
TABS,ioos:station:TABS:H:1,2007-06-03T20:00:00Z,27.8674,-96.5433,4.0,5.565617666,177.4257015,6.79,'11111222,11111222,11111222' 
TABS,ioos:station:TABS:H:1,2007-06-03T20:30:00Z,27.8674,-96.5433,4.0,4.632429168,178.1446291,5.94,'11111222,11111222,11111222' 
TABS,ioos:station:TABS:H:1,2007-06-03T21:00:00Z,27.8674,-96.5433,4.0,4.330103925,180.3971716,5.27,'11111222,11111222,11111222' 
TABS,ioos:station:TABS:H:1,2007-06-03T21:30:00Z,27.8674,-96.5433,4.0,5.212456235,178.2412041,6.53,'11111222,11111222,11111222' 
TABS,ioos:station:TABS:H:1,2007-06-03T22:00:00Z,27.8674,-96.5433,4.0,5.371824643,181.4936134,6.95,'11111222,11111222,11111222' 
TABS,ioos:station:TABS:H:1,2007-06-03T22:30:00Z,27.8674,-96.5433,4.0,4.731056964,181.2113545,6.32,'11111222,11111222,11111222' 
TABS,ioos:station:TABS:H:1,2007-06-03T23:00:00Z,27.8674,-96.5433,4.0,4.096461888,176.7815959,5.57,'11111222,11111222,11111222' 
TABS,ioos:station:TABS:H:1,2007-06-03T23:30:00Z,27.8674,-96.5433,4.0,4.36664631,169.9770522,5.63,'11111222,11111222,11111222' 
TABS,ioos:station:TABS:H:1,2007-06-04T00:00:00Z,27.8674,-96.5433,4.0,4.176469801,165.8641817,6.15,'11111222,11111222,11111222' 
TABS,ioos:station:TABS:H:1,2007-06-04T00:30:00Z,27.8674,-96.5433,4.0,5.135854359,162.200329,6.41,'11111222,11111222,11111222' 
TABS,ioos:station:TABS:H:1,2007-06-04T01:00:00Z,27.8674,-96.5433,4.0,5.205045629,158.1170887,7.12,'11111222,11111222,11111222' 
TABS,ioos:station:TABS:H:1,2007-06-04T01:30:00Z,27.8674,-96.5433,4.0,6.030961781,155.0924225,7.48,'11111222,11111222,11111222' 
TABS,ioos:station:TABS:H:1,2007-06-04T02:00:00Z,27.8674,-96.5433,4.0,5.94983193,158.6101432,7.7,'11111222,11111222,11111222' 
TABS,ioos:station:TABS:H:1,2007-06-04T02:30:00Z,27.8674,-96.5433,4.0,5.527865773,159.5655251,6.94,'11111222,11111222,11111222' 
TABS,ioos:station:TABS:H:1,2007-06-04T03:00:00Z,27.8674,-96.5433,4.0,5.519284374,162.714347,6.96,'11111222,11111222,11111222' 
TABS,ioos:station:TABS:H:1,2007-06-04T03:30:00Z,27.8674,-96.5433,4.0,5.784410082,163.6330677,7.14,'11111222,11111222,11111222' 
TABS,ioos:station:TABS:H:1,2007-06-04T04:00:00Z,27.8674,-96.5433,4.0,5.674592496,172.8125926,7.05,'11111222,11111222,11111222' 
TABS,ioos:station:TABS:H:1,2007-06-04T04:30:00Z,27.8674,-96.5433,4.0,5.655333766,189.3625764,6.63,'11111222,11111222,11111222' 
TABS,ioos:station:TABS:H:1,2007-06-04T05:00:00Z,27.8674,-96.5433,4.0,5.919898648,188.1576687,6.88,'11111222,11111222,11111222' 
TABS,ioos:station:TABS:H:1,2007-06-04T05:30:00Z,27.8674,-96.5433,4.0,4.01897997,194.555076,4.87,'11111222,11111222,11111222' 
TABS,ioos:station:TABS:H:1,2007-06-04T06:00:00Z,27.8674,-96.5433,4.0,2.58,180.0002105,3.34,'11111222,11111222,11111222' 
TABS,ioos:station:TABS:H:1,2007-06-04T06:30:00Z,27.8674,-96.5433,4.0,1.332403843,196.1227715,1.79,'11111222,11111222,11111222' 
TABS,ioos:station:TABS:H:1,2007-06-04T07:00:00Z,27.8674,-96.5433,4.0,2.994077487,312.4280602,4.39,'11111222,11111222,11111222' 
TABS,ioos:station:TABS:H:1,2007-06-04T07:30:00Z,27.8674,-96.5433,4.0,7.464060557,333.6751044,11.28,'11111222,11111222,11111222' 
TABS,ioos:station:TABS:H:1,2007-06-04T08:00:00Z,27.8674,-96.5433,4.0,8.404118038,354.1263999,10.56,'11111222,11111222,11111222' 
TABS,ioos:station:TABS:H:1,2007-06-04T08:30:00Z,27.8674,-96.5433,4.0,6.697648841,357.2612779,8.11,'11111222,11111222,11111222' 
TABS,ioos:station:TABS:H:1,2007-06-04T09:00:00Z,27.8674,-96.5433,4.0,7.219175853,11.66769141,9.2,'11111222,11111222,11111222' 
TABS,ioos:station:TABS:H:1,2007-06-04T09:30:00Z,27.8674,-96.5433,4.0,4.75394573,14.62062934,6.05,'11111222,11111222,11111222' 
TABS,ioos:station:TABS:H:1,2007-06-04T10:00:00Z,27.8674,-96.5433,4.0,9.295353678,119.378252,11.7,'11111222,11111222,11111222' 
TABS,ioos:station:TABS:H:1,2007-06-04T10:30:00Z,27.8674,-96.5433,4.0,7.159168946,140.953028,8.62,'11111222,11111222,11111222' 
TABS,ioos:station:TABS:H:1,2007-06-04T11:00:00Z,27.8674,-96.5433,4.0,7.368398741,141.6683785,9.41,'11111222,11111222,11111222' 
TABS,ioos:station:TABS:H:1,2007-06-04T11:30:00Z,27.8674,-96.5433,4.0,7.059773367,155.0324048,9.57,'11111222,11111222,11111222' 
TABS,ioos:station:TABS:H:1,2007-06-04T12:00:00Z,27.8674,-96.5433,4.0,9.079394253,164.9997239,10.57,'11111222,11111222,11111222' 
TABS,ioos:station:TABS:H:1,2007-06-04T12:30:00Z,27.8674,-96.5433,4.0,7.183794262,191.0754919,9.21,'11111222,11111222,11111222' 
TABS,ioos:station:TABS:H:1,2007-06-04T13:00:00Z,27.8674,-96.5433,4.0,6.012628377,219.9398986,7.41,'11111222,11111222,11111222' 
TABS,ioos:station:TABS:H:1,2007-06-04T13:30:00Z,27.8674,-96.5433,4.0,6.136489224,249.2910108,7.3,'11111222,11111222,11111222' 
TABS,ioos:station:TABS:H:1,2007-06-04T14:00:00Z,27.8674,-96.5433,4.0,7.182429951,317.2003199,8.67,'11111222,11111222,11111222' 
TABS,ioos:station:TABS:H:1,2007-06-04T14:30:00Z,27.8674,-96.5433,4.0,6.993461232,314.5943712,8.28,'11111222,11111222,11111222' 
TABS,ioos:station:TABS:H:1,2007-06-04T15:00:00Z,27.8674,-96.5433,4.0,6.890029028,322.9636632,8.5,'11111222,11111222,11111222' 
TABS,ioos:station:TABS:H:1,2007-06-04T15:30:00Z,27.8674,-96.5433,4.0,5.733306201,333.2560315,6.81,'11111222,11111222,11111222' 
TABS,ioos:station:TABS:H:1,2007-06-04T16:00:00Z,27.8674,-96.5433,4.0,5.304790288,336.9147099,6.87,'11111222,11111222,11111222' 
TABS,ioos:station:TABS:H:1,2007-06-04T16:30:00Z,27.8674,-96.5433,4.0,4.734596076,345.3178561,5.76,'11111222,11111222,11111222' 
TABS,ioos:station:TABS:H:1,2007-06-04T17:00:00Z,27.8674,-96.5433,4.0,4.341658669,352.0563363,5.51,'11111222,11111222,11111222' 
TABS,ioos:station:TABS:H:1,2007-06-04T17:30:00Z,27.8674,-96.5433,4.0,3.589122455,5.916867846,4.38,'11111222,11111222,11111222' 
TABS,ioos:station:TABS:H:1,2007-06-04T18:00:00Z,27.8674,-96.5433,4.0,3.129680495,20.57721363,3.97,'11111222,11111222,11111222' 
TABS,ioos:station:TABS:H:1,2007-06-04T18:30:00Z,27.8674,-96.5433,4.0,3.357752224,29.23663694,4.3,'11111222,11111222,11111222' 
TABS,ioos:station:TABS:H:1,2007-06-04T19:00:00Z,27.8674,-96.5433,4.0,1.777245059,349.9544827,2.72,'11111222,11111222,11111222' 
TABS,ioos:station:TABS:H:1,2007-06-04T19:30:00Z,27.8674,-96.5433,4.0,1.417921013,11.38894261,2.61,'11111222,11111222,11111222' 
TABS,ioos:station:TABS:H:1,2007-06-04T20:00:00Z,27.8674,-96.5433,4.0,0.51623638,58.46486092,1.14,'11111222,11111222,11111222' 
TABS,ioos:station:TABS:H:1,2007-06-04T20:30:00Z,27.8674,-96.5433,4.0,0.842199501,132.5943508,1.35,'11111222,11111222,11111222' 
TABS,ioos:station:TABS:H:1,2007-06-04T21:00:00Z,27.8674,-96.5433,4.0,1.79,180.0002105,2.88,'11111222,11111222,11111222' 